Regional Weather Roundup
Issued by NWS

Home | Current Version | Previous Version | Graphics & Text | Print | Product List | Glossary On
Versions: 1 2 3 4 5 6 7 8 9 10 11 12 13 14 15 16 17 18 19 20 21 22 23 24 25 26 27 28 29 30 31 32 33 34 35 36 37 38 39 40 41 42 43 44 45 46 47 48 49 50
000
ASUS43 KFSD 171902
RWRSD

WEATHER ROUNDUP FOR SOUTH DAKOTA
NATIONAL WEATHER SERVICE SIOUX FALLS SD
200 PM CDT THU APR 17 2014

NOTE: "FAIR" INDICATES FEW OR NO CLOUDS BELOW 12,000 FEET WITH NO
SIGNIFICANT WEATHER AND/OR OBSTRUCTIONS TO VISIBILITY.


SDZ001>005-009-010-012>017-172000-
NORTHWEST AND NORTH CENTRAL SOUTH DAKOTA

CITY           SKY/WX    TMP DP  RH WIND       PRES   REMARKS
FAITH            N/A     41  23  48 S23G33    30.14F
MOBRIDGE       PTSUNNY   43  17  35 S17       30.21F
$$

SDZ012>016-024>037-041>051-057-063-072>074-172000-
SOUTHWEST AND SOUTH CENTRAL SOUTH DAKOTA

CITY           SKY/WX    TMP DP  RH WIND       PRES   REMARKS
RAPID CTY ARPT MOSUNNY   49  33  54 S21G28    30.06F
PIERRE         CLOUDY    42  21  43 S17G24    30.24F
CUSTER         PTSUNNY   34  30  85 SW7       30.04F WCI  28
ELLSWORTH AFB  SUNNY     49  34  55 S20G26    30.05F
PHILIP         MOSUNNY   43  28  55 SE17G31   30.18F
PINE RIDGE     CLOUDY    44  33  65 S14       30.12F
WINNER         CLOUDY    45  17  32 SE15      30.24F
$$

SDZ004>011-016>023-039-040-172000-
NORTHEAST SOUTH DAKOTA

CITY           SKY/WX    TMP DP  RH WIND       PRES   REMARKS
ABERDEEN       SUNNY     43  16  33 N7        30.29F
WATERTOWN      MOSUNNY   36  13  38 E5        30.29S
SISSETON         N/A     40  19  43 MISG      30.30F
$$

SDZ017-020-022-023-036>040-048>070-172000-
SOUTHEAST SOUTH DAKOTA

CITY           SKY/WX    TMP DP  RH WIND       PRES   REMARKS
SIOUX FALLS    MOSUNNY   39  25  57 NE10      30.32S
HURON          SUNNY     40  20  44 VRB3      30.31F
CHAMBERLAIN      N/A     45  18  34 SE9G22    30.26F
MITCHELL       SUNNY     45  17  32 NE6       30.31F
YANKTON        SUNNY     43  21  42 NE6       30.32F
$$

ABBREVIATIONS USED IN REMARKS
   TC - TEMPERATURE IN CELSIUS
  WCI - WIND CHILL INDEX
   HX - HEAT INDEX
  VSB - VISIBILITY




USA.gov is the U.S. government's official web portal to all federal, state and local government web resources and services.